• In Hungary
  • List of Countries
  • For 7 days
  • Water Temperature
  • Satellite Maps
  • Weather Map
  • News
  • Weather Widgets
  • user-avatar
    Login

    Hourly Weather Sharagol

    Today, 21 February, Wednesday

    Time Temperature Precipitation Wind Pressure Humidity
    00:00 -26°C° 0 mm 3 mps 595 mmHg 87%
    01:00 -26°C° 0 mm 3 mps 595 mmHg 88%
    02:00 -25°C° 0 mm 2 mps 595 mmHg 88%
    03:00 -25°C° 0 mm 2 mps 595 mmHg 88%
    04:00 -25°C° 0 mm 2 mps 594 mmHg 89%
    05:00 -26°C° 0 mm 2 mps 594 mmHg 89%
    06:00 -26°C° 0 mm 2 mps 594 mmHg 89%
    07:00 -26°C° 0 mm 2 mps 594 mmHg 89%
    08:00 -25°C° 0 mm 3 mps 594 mmHg 87%
    09:00 -23°C° 0 mm 3 mps 595 mmHg 85%
    10:00 -22°C° 0 mm 3 mps 595 mmHg 84%
    11:00 -22°C° 0 mm 4 mps 595 mmHg 80%
    12:00 -20°C° 0 mm 4 mps 595 mmHg 77%
    13:00 -20°C° 0 mm 5 mps 595 mmHg 73%
    14:00 -21°C° 0 mm 6 mps 595 mmHg 74%
    15:00 -21°C° 0 mm 6 mps 594 mmHg 75%
    16:00 -21°C° 0 mm 6 mps 594 mmHg 76%
    17:00 -22°C° 0 mm 5 mps 593 mmHg 81%
    18:00 -23°C° 0 mm 4 mps 592 mmHg 85%
    19:00 -24°C° 0 mm 3 mps 592 mmHg 89%
    20:00 -24°C° 0 mm 3 mps 592 mmHg 90%
    21:00 -25°C° 0 mm 3 mps 591 mmHg 90%
    22:00 -25°C° 0 mm 3 mps 591 mmHg 91%
    23:00 -24°C° 0.1 mm 2 mps 591 mmHg 92%

    Tomorrow, 22 February, Thursday

    Time Temperature Precipitation Wind Pressure Humidity
    00:00 -24°C° 0.1 mm 2 mps 591 mmHg 92%
    01:00 -24°C° 0.1 mm 2 mps 591 mmHg 93%
    02:00 -24°C° 0.1 mm 2 mps 591 mmHg 93%
    03:00 -24°C° 0.1 mm 2 mps 590 mmHg 93%
    04:00 -24°C° 0.1 mm 2 mps 590 mmHg 94%
    05:00 -24°C° 0.1 mm 2 mps 590 mmHg 94%
    06:00 -21°C° 0.1 mm 1 mps 590 mmHg 95%
    07:00 -21°C° 0.1 mm 1 mps 590 mmHg 95%
    08:00 -20°C° 0.1 mm 1 mps 590 mmHg 93%
    09:00 -19°C° 0.1 mm 1 mps 591 mmHg 91%
    10:00 -18°C° 0.1 mm 1 mps 591 mmHg 90%
    11:00 -17°C° 0.1 mm 1 mps 591 mmHg 86%
    12:00 -19°C° 0.1 mm 2 mps 591 mmHg 82%
    13:00 -18°C° 0.1 mm 2 mps 591 mmHg 79%
    14:00 -18°C° 0.1 mm 2 mps 591 mmHg 80%
    15:00 -18°C° 0.1 mm 2 mps 591 mmHg 82%
    16:00 -18°C° 0.1 mm 2 mps 591 mmHg 84%
    17:00 -20°C° 0 mm 2 mps 590 mmHg 89%
    18:00 -20°C° 0 mm 1 mps 590 mmHg 93%
    19:00 -22°C° 0 mm 1 mps 589 mmHg 98%
    20:00 -23°C° 0 mm 1 mps 589 mmHg 97%
    21:00 -24°C° 0 mm 1 mps 589 mmHg 96%
    22:00 -24°C° 0 mm 1 mps 589 mmHg 95%
    23:00 -24°C° 0 mm 1 mps 589 mmHg 94%

    Day after tomorrow, 23 February, Friday

    Time Temperature Precipitation Wind Pressure Humidity
    00:00 -24°C° 0 mm 1 mps 590 mmHg 92%
    01:00 -26°C° 0 mm 2 mps 590 mmHg 90%
    02:00 -25°C° 0 mm 2 mps 590 mmHg 90%
    03:00 -24°C° 0 mm 2 mps 591 mmHg 89%
    04:00 -23°C° 0 mm 2 mps 591 mmHg 89%
    05:00 -21°C° 0.1 mm 2 mps 592 mmHg 89%
    06:00 -20°C° 0.1 mm 2 mps 592 mmHg 90%
    07:00 -20°C° 0.1 mm 2 mps 592 mmHg 91%
    08:00 -18°C° 0.1 mm 2 mps 593 mmHg 88%
    09:00 -17°C° 0.1 mm 2 mps 594 mmHg 86%
    10:00 -16°C° 0.1 mm 3 mps 595 mmHg 84%
    11:00 -15°C° 0 mm 3 mps 595 mmHg 80%
    12:00 -15°C° 0 mm 3 mps 595 mmHg 76%
    13:00 -15°C° 0 mm 4 mps 595 mmHg 72%
    14:00 -14°C° 0 mm 3 mps 595 mmHg 73%
    15:00 -15°C° 0 mm 3 mps 595 mmHg 74%
    16:00 -14°C° 0 mm 2 mps 595 mmHg 74%
    17:00 -17°C° 0 mm 2 mps 594 mmHg 75%
    18:00 -19°C° 0 mm 2 mps 594 mmHg 75%
    19:00 -23°C° 0 mm 2 mps 593 mmHg 76%
    20:00 -23°C° 0 mm 2 mps 593 mmHg 74%
    21:00 -24°C° 0 mm 2 mps 593 mmHg 72%
    22:00 -24°C° 0 mm 2 mps 593 mmHg 70%
    23:00 -24°C° 0 mm 2 mps 593 mmHg 71%

    24 February, Saturday

    Time Temperature Precipitation Wind Pressure Humidity
    00:00 -23°C° 0 mm 2 mps 593 mmHg 72%
    01:00 -23°C° 0 mm 2 mps 593 mmHg 73%
    02:00 -23°C° 0 mm 2 mps 593 mmHg 76%
    03:00 -23°C° 0 mm 2 mps 593 mmHg 78%
    04:00 -23°C° 0 mm 2 mps 593 mmHg 80%
    05:00 -23°C° 0 mm 2 mps 593 mmHg 81%
    06:00 -23°C° 0 mm 2 mps 593 mmHg 81%
    07:00 -23°C° 0 mm 2 mps 593 mmHg 82%
    08:00 -20°C° 0 mm 2 mps 594 mmHg 81%
    09:00 -18°C° 0 mm 2 mps 594 mmHg 80%
    10:00 -16°C° 0 mm 2 mps 595 mmHg 79%
    11:00 -15°C° 0 mm 2 mps 595 mmHg 75%
    12:00 -15°C° 0 mm 3 mps 595 mmHg 71%
    13:00 -14°C° 0 mm 3 mps 595 mmHg 68%
    14:00 -14°C° 0 mm 3 mps 595 mmHg 70%
    15:00 -13°C° 0 mm 2 mps 594 mmHg 72%
    16:00 -13°C° 0 mm 2 mps 594 mmHg 74%
    17:00 -15°C° 0 mm 2 mps 593 mmHg 76%
    18:00 -17°C° 0 mm 2 mps 593 mmHg 78%
    19:00 -19°C° 0 mm 2 mps 592 mmHg 80%
    20:00 -19°C° 0 mm 2 mps 592 mmHg 80%
    21:00 -20°C° 0 mm 2 mps 592 mmHg 79%
    22:00 -20°C° 0 mm 2 mps 592 mmHg 78%
    23:00 -20°C° 0 mm 2 mps 591 mmHg 78%

    25 February, Sunday

    Time Temperature Precipitation Wind Pressure Humidity
    00:00 -20°C° 0 mm 2 mps 591 mmHg 78%
    01:00 -21°C° 0 mm 2 mps 591 mmHg 78%
    02:00 -20°C° 0 mm 2 mps 591 mmHg 77%
    03:00 -20°C° 0 mm 2 mps 591 mmHg 77%
    04:00 -20°C° 0 mm 2 mps 590 mmHg 77%
    05:00 -19°C° 0.1 mm 2 mps 591 mmHg 80%
    06:00 -16°C° 0.1 mm 1 mps 591 mmHg 83%
    07:00 -15°C° 0.1 mm 1 mps 591 mmHg 86%
    08:00 -17°C° 0.2 mm 2 mps 592 mmHg 87%
    09:00 -16°C° 0.2 mm 2 mps 592 mmHg 88%
    10:00 -15°C° 0.2 mm 2 mps 593 mmHg 90%
    11:00 -17°C° 0.1 mm 4 mps 593 mmHg 84%
    12:00 -17°C° 0.1 mm 5 mps 593 mmHg 79%
    13:00 -17°C° 0.1 mm 6 mps 593 mmHg 74%
    14:00 -18°C° 0.1 mm 6 mps 594 mmHg 75%
    15:00 -18°C° 0.1 mm 6 mps 594 mmHg 75%
    16:00 -20°C° 0.1 mm 6 mps 594 mmHg 75%
    17:00 -21°C° 0.1 mm 5 mps 594 mmHg 81%
    18:00 -23°C° 0.1 mm 4 mps 594 mmHg 86%
    19:00 -21°C° 0.1 mm 2 mps 594 mmHg 91%
    20:00 -23°C° 0.1 mm 2 mps 594 mmHg 92%
    21:00 -24°C° 0.1 mm 2 mps 594 mmHg 92%
    22:00 -21°C° 0.1 mm 1 mps 595 mmHg 93%
    23:00 -22°C° 0.1 mm 1 mps 595 mmHg 92%

    26 February, Monday

    Time Temperature Precipitation Wind Pressure Humidity
    00:00 -23°C° 0.1 mm 1 mps 594 mmHg 91%
    01:00 -24°C° 0.1 mm 1 mps 594 mmHg 90%
    02:00 -24°C° 0 mm 1 mps 594 mmHg 88%
    03:00 -25°C° 0 mm 1 mps 594 mmHg 86%
    04:00 -27°C° 0 mm 1 mps 594 mmHg 85%
    05:00 -27°C° 0 mm 1 mps 594 mmHg 85%
    06:00 -27°C° 0 mm 1 mps 594 mmHg 85%
    07:00 -27°C° 0 mm 1 mps 594 mmHg 85%
    08:00 -24°C° 0 mm 1 mps 595 mmHg 83%
    09:00 -22°C° 0 mm 1 mps 596 mmHg 81%
    10:00 -20°C° 0 mm 1 mps 597 mmHg 79%
    11:00 -21°C° 0 mm 2 mps 597 mmHg 77%
    12:00 -23°C° 0 mm 3 mps 596 mmHg 74%
    13:00 -22°C° 0 mm 3 mps 596 mmHg 71%
    14:00 -22°C° 0 mm 3 mps 596 mmHg 73%
    15:00 -22°C° 0 mm 3 mps 596 mmHg 74%
    16:00 -22°C° 0 mm 3 mps 596 mmHg 76%
    17:00 -23°C° 0 mm 2 mps 595 mmHg 81%
    18:00 -25°C° 0 mm 2 mps 595 mmHg 86%
    19:00 -24°C° 0 mm 1 mps 594 mmHg 92%
    20:00 -24°C° 0 mm 1 mps 594 mmHg 93%
    21:00 -24°C° 0 mm 1 mps 594 mmHg 94%
    22:00 -25°C° 0 mm 1 mps 594 mmHg 96%
    23:00 -25°C° 0 mm 1 mps 594 mmHg 96%
    Show more